SL-16 DEB, 22436

Orbit data source: Space-Track

SL-16 DEB, 22436 is space debris in LEO originally from a launch on Fri, 25 Dec 1992 UTC launched from the Tyuratam Missile And Space Complex (TTMTR). Debris objects in space refer to the collection of defunct objects orbiting the Earth. Examples of debris include non-operational satellites, rocket bodies, and fragments generated from explosions, collisions, or faulty payload assembly.

Loading next visibility...
Identifier
22436, 1992-093ED
Orbit
LEO
Country
Flag of CISCIS
Related business
Manufacturer
Unknown
Mission
Spacecraft
Bus & Motor
Unknown
Mass
Unknown
Launch date (UTC)
1992-12-25 (33 years ago)
Launch vehicle
Unknown
Launch site
Tyuratam Missile And Space Complex (TTMTR)
Object type
Payload
Rocket body
Debris
Shape & HBR
Unknown shape, 0.1 m
Radar Cross Section
Small (<0.1 m²)

Expand to show TLE details & history
Last TLE update: 7 hours ago

TLE from 7 hours ago
0 SL-16 DEB
1 22436U 92093ED  26127.07539830  .00006654  00000-0  79584-3 0  9990
2 22436  71.5048 244.8574 0035360 132.8777  42.8502 14.84044098759396
Epoch: 2026-05-07T01:48Z
TLE epoch observation values (Epoch: 2026-05-07T01:48:34.413Z)
Latitude
3.70199°
Longitude
171.55388°
Altitude
600.6 km
Speed
7.57 km/s
True Right ascension
04h 14m 29s
True Declination
3° 40' 46"
Sunlit
Object was in daylight at epoch
Visualization orbit readout
Latitude
Unknown
Longitude
Unknown
Altitude
Unknown
Speed
Unknown
Apparent Right ascension
Unknown
Apparent Declination
Unknown
Sunlit
N/A
Visualization observer readout
Local Sidereal Time
16:21:05
Azimuth
Unknown
Elevation
Unknown
Doppler factor
Unknown
Orbital elements
Apogee altitude
639.12 km
Perigee altitude
589.669 km
Semi-major axis
6,992.532 km
Eccentricity
0.00354
Inclination
71.5048°
RAAN
244.8574°
Arg. of periapsis
132.8777°
True anomaly
43.12666°
Mean anomaly
42.8502°
Eccentric anomaly
42.98834°
Mean motion
3.71186 °/min
Orbital period
96.99 mins
BSTAR
0.00079584
Loading maneuver chart data...
Computing Atmospheric mass density...
Loading historical data...
Loading historical data...
Loading historical data...
Loading historical data...
Loading historical data...
Loading historical data...
Loading historical data...

Documentation

Showing up to 5 results
|